This demonstration page uses our WeatherBlox Daily Observations layout. Learn more.

Left ArrowRight Arrow

31.84235, -102.49876

Hourly Observations for June 8, 2022

Temp ( °F °C ) Dew Point ( °F °C ) Humidity (%) Winds ( mph kmh ) Pressure ( in mb ) Visibility ( mi km ) Precip ( " mm )
12:53 am 00:53 Clear 88 31.1 61 16.1 40 40 SSE 8 13 29.70 1006 10 16 0.00 0.00
1:53 am 01:53 Clear 84 28.9 61 16.1 46 46 E 6 9 29.71 1006 10 16 0.00 0.00
2:53 am 02:53 Clear 83 28.3 61 16.1 48 48 ESE 7 11 29.70 1006 10 16 0.00 0.00
3:53 am 03:53 Clear 84 28.9 57 13.9 40 40 S 10 17 29.67 1005 10 16 0.00 0.00
4:53 am 04:53 Clear 84 28.9 54 12.2 36 36 S 15 24 29.66 1005 10 16 0.00 0.00
5:53 am 05:53 Clear 83 28.3 55 12.8 38 38 S 10 17 29.67 1005 10 16 0.00 0.00
6:53 am 06:53 Sunny 80 26.7 57 13.9 45 45 S 16 26 29.69 1005 10 16 0.00 0.00
7:53 am 07:53 Sunny 80 26.7 62 16.7 54 54 S 20 31 29.70 1006 9 14 0.00 0.00
8:53 am 08:53 Sunny 81 27.2 64 17.8 57 57 S 22 35 29.71 1006 8 13 0.00 0.00
9:53 am 09:53 Sunny 85 29.4 64 17.8 50 50 S 16 26 29.72 1007 8 13 0.00 0.00
10:53 am 10:53 Sunny 87 30.6 64 17.8 46 46 S 14 22 29.75 1007 9 14 0.00 0.00
11:53 am 11:53 Sunny 92 33.3 62 16.7 37 37 undefined N/A 29.80 1009 10 16 0.00 0.00
12:03 pm 12:03 Mostly Cloudy with Haze 86 30 65 18.3 49 49 ENE 36 57 29.79 1009 2 3 0.00 0.00
12:10 pm 12:10 Mostly Cloudy with Haze 86 30 65 18.3 49 49 ENE 29 46 29.78 1008 1 1 0.00 0.00
12:31 pm 12:31 Mostly Cloudy with Haze 84 28.9 62 16.7 48 48 E 28 44 29.80 1009 1 1 0.00 0.00
12:53 pm 12:53 Cloudy with Haze 87 30.6 62 16.7 43 43 ENE 30 48 29.86 1011 1 2 0.00 0.00
1:16 pm 13:16 Cloudy with Haze 86 30 61 16.1 43 43 ENE 32 52 29.81 1009 1 1 0.00 0.00
1:35 pm 13:35 Cloudy with Haze 87 30.6 61 16.1 42 42 E 30 48 29.80 1009 1 2 0.00 0.00
1:44 pm 13:44 Cloudy with Haze 88 31.1 61 16.1 40 40 E 29 46 29.80 1009 2 3 0.00 0.00
1:53 pm 13:53 Cloudy with Haze 87 30.6 61 16.1 42 42 ENE 30 48 29.86 1011 3 4 0.00 0.00
2:30 pm 14:30 Cloudy with Haze 89 31.7 61 16.1 39 39 E 29 46 29.77 1008 2 3 0.00 0.00
2:45 pm 14:45 Cloudy with Haze 89 31.7 61 16.1 39 39 E 23 37 29.76 1008 2 3 0.00 0.00
2:53 pm 14:53 Cloudy with Haze 89 31.7 61 16.1 39 39 E 25 41 29.84 1010 2 3 0.00 0.00
3:19 pm 15:19 Cloudy with Haze 90 32.2 60 15.6 37 37 E 25 41 29.74 1007 3 5 0.00 0.00
3:53 pm 15:53 Cloudy with Haze 91 32.8 60 15.6 35 35 ESE 25 41 29.80 1009 6 10 0.00 0.00
4:31 pm 16:31 Cloudy 92 33.3 59 15 33 33 ESE 25 41 29.70 1006 9 14 0.00 0.00
4:53 pm 16:53 Cloudy 92 33.3 59 15 33 33 E 21 33 29.78 1009 10 16 0.00 0.00
5:04 pm 17:04 Cloudy 91 32.8 59 15 34 34 E 23 37 29.70 1006 10 16 0.00 0.00
5:33 pm 17:33 Partly Cloudy 91 32.8 59 15 34 34 ESE 18 30 29.70 1006 10 16 0.00 0.00
5:53 pm 17:53 Sunny 91 32.8 60 15.6 35 35 E 17 28 29.79 1009 10 16 0.00 0.00
6:53 pm 18:53 Sunny 89 31.7 59 15 36 36 E 16 26 29.80 1009 10 16 0.00 0.00
7:53 pm 19:53 Sunny 88 31.1 59 15 38 38 E 14 22 29.82 1010 10 16 0.00 0.00
8:53 pm 20:53 Sunny 87 30.6 59 15 39 39 E 13 20 29.82 1010 10 16 0.00 0.00
9:53 pm 21:53 Clear 85 29.4 59 15 42 42 E 15 24 29.84 1011 10 16 0.00 0.00
10:53 pm 22:53 Clear 84 28.9 59 15 43 43 E 15 24 29.87 1011 10 16 0.00 0.00
11:53 pm 23:53 Clear 80 26.7 58 14.4 47 47 E 16 26 29.89 1012 10 16 0.00 0.00

Powered by AerisWeather